Helicity
358 348 346 341 336 332 334 338 333 262 187 137 67 71 37 109 120 201 69 57 118 121 152 196 220 193 231 255 272 214 293 330 314 276 352 361 403 500 553 555 464 346 354
469 387 327 272 298 327 327 348 350 345 340 341 253 139 116 142 144 144 201 89 88 102 147 205 235 224 209 221 220 252 231 243 321 218 365 414 408 416 492 531 488 412 343
430 408 384 346 278 237 207 193 238 282 344 339 350 316 313 274 216 181 162 158 158 187 198 217 208 211 198 194 200 183 225 272 310 320 427 478 453 447 588 583 508 657 388
287 263 284 277 229 198 180 179 182 183 205 234 219 200 201 221 240 239 258 252 203 207 204 193 180 166 163 155 189 165 212 299 289 326 445 449 464 486 545 593 611 641 598
191 186 184 157 135 146 129 114 91 91 91 103 133 157 181 170 185 218 232 261 292 251 207 178 155 141 129 162 194 191 225 258 330 318 363 407 450 491 502 559 613 717 721
93 182 114 54 69 67 64 74 58 47 51 45 75 110 159 180 228 251 275 255 251 239 228 217 194 173 143 115 114 172 256 254 273 338 320 300 357 413 498 604 813 807 542
-39 15 -18 54 66 14 29 101 116 78 44 40 10 48 106 141 201 205 184 157 147 158 148 148 150 159 135 147 161 159 206 335 355 292 314 293 370 410 560 646 598 711 597
21 4 -9 -5 -12 -5 3 58 66 15 7 -20 -17 -9 39 61 96 124 140 108 121 122 115 123 118 114 109 113 149 185 255 299 284 270 261 304 318 325 377 461 503 558 613
4 15 17 17 15 4 -5 -16 -15 -28 -46 -30 -22 -16 -9 8 5 25 80 95 120 127 135 125 125 122 119 113 180 254 278 297 387 426 422 385 352 406 419 496 592 586 588
-6 2 15 21 29 28 9 28 13 2 17 6 3 49 44 69 45 40 39 74 103 110 124 120 134 121 137 121 205 240 254 241 331 388 426 509 465 440 411 356 427 537 524
-8 -12 -18 -2 15 27 33 33 32 61 46 69 67 77 83 85 64 44 13 -12 19 68 115 139 107 111 106 108 200 216 239 272 331 414 412 458 492 499 451 543 524 405 412
16 17 16 2 7 11 21 34 46 48 54 62 77 88 95 98 86 81 55 8 -13 26 87 98 93 82 82 129 241 292 353 379 391 422 470 422 457 430 467 485 487 485 400
39 30 26 30 27 24 24 16 23 53 60 56 68 70 90 115 116 108 94 55 29 64 72 94 93 91 140 196 213 282 390 384 382 412 395 402 343 407 513 486 458 428 360
40 39 26 26 35 40 48 64 65 60 59 87 90 103 116 150 143 143 160 131 98 99 84 112 169 199 206 195 228 259 254 283 342 365 411 423 416 463 437 338 343 329 401
33 41 50 44 45 56 57 53 77 103 119 111 125 141 152 159 165 128 159 170 126 99 115 143 192 226 244 228 214 226 269 346 344 404 456 422 429 415 329 275 271 297 303
24 41 44 49 58 75 86 97 64 63 83 117 128 150 143 130 149 143 148 154 135 131 167 147 137 163 206 230 231 241 258 347 358 398 398 397 433 372 298 273 236 257 268
18 26 40 40 35 41 46 57 76 61 43 87 131 167 167 132 150 153 140 147 158 197 191 153 140 130 133 176 225 264 288 298 341 355 335 381 340 289 267 226 222 175 136
14 10 21 22 17 21 29 29 32 28 29 62 99 130 163 160 152 156 146 182 272 223 202 161 135 130 135 149 214 271 307 312 306 337 331 340 302 314 335 282 196 134 106
11 19 20 32 33 24 36 51 81 78 66 60 97 152 190 174 164 155 168 266 244 212 198 174 139 128 142 181 219 278 303 286 323 343 347 323 341 319 312 269 216 156 106
-10 -6 16 33 39 39 39 60 76 77 89 106 115 140 144 219 189 192 227 245 222 196 202 196 159 136 155 211 279 283 328 310 309 351 330 336 310 306 316 255 200 136 113
13 5 11 27 42 48 49 73 79 86 104 116 115 100 107 160 167 157 159 151 200 227 205 183 143 120 189 264 312 269 324 339 350 319 334 296 310 323 284 246 147 119 130
92 44 60 27 18 55 60 59 49 58 67 84 112 104 69 110 156 172 157 152 163 184 188 151 131 124 192 275 295 290 328 337 328 355 324 304 277 291 216 154 148 157 132
116 55 44 -7 -2 64 49 31 31 43 36 53 59 57 73 96 135 162 182 191 207 225 228 199 205 200 201 260 274 314 293 303 292 320 327 296 241 145 114 130 130 131 93
110 75 59 -11 68 55 32 31 28 33 33 20 15 20 51 79 106 127 144 157 178 218 250 236 206 183 228 258 285 281 337 323 289 262 268 260 171 125 126 119 94 76 76
105 69 37 17 66 40 27 17 10 11 34 44 52 54 54 80 106 118 126 155 162 189 162 173 181 206 237 256 274 268 292 252 219 216 137 99 143 132 107 82 74 68 63
88 51 23 7 40 31 19 11 2 -0 24 24 13 36 51 67 92 110 122 137 152 160 166 161 155 175 233 256 245 245 231 190 205 146 102 120 119 121 84 85 78 60 53
Wind_Speed
28 32 34 38 40 42 49 55 66 69 71 75 77 84 91 77 85 95 103 112 62 60 72 71 70 63 63 69 69 65 63 61 68 68 59 52 50 45 38 36 29 35 25
31 30 33 34 35 36 39 44 48 54 56 61 57 56 69 62 68 69 68 65 37 72 59 68 62 55 60 60 65 63 64 62 65 69 60 60 58 49 40 33 36 29 31
36 36 37 38 37 38 38 38 42 46 48 49 49 52 54 55 53 54 54 53 49 49 52 54 58 58 62 63 64 63 66 63 60 63 63 56 52 48 46 39 32 29 35
45 45 45 45 44 43 43 43 44 44 47 46 46 47 49 50 53 58 60 63 63 62 64 65 64 64 64 63 62 63 59 58 51 51 55 59 57 54 46 43 39 37 37
53 54 55 55 53 52 51 50 50 50 50 49 51 53 53 53 57 62 68 72 76 77 74 71 71 69 66 65 62 60 58 57 53 52 61 60 57 53 49 47 44 35 39
65 66 64 62 62 62 61 61 61 60 58 56 56 58 61 62 63 66 69 75 77 78 80 76 74 74 73 72 68 65 56 59 60 60 63 63 58 59 52 46 42 45 47
69 71 73 76 78 75 75 75 76 74 71 70 68 69 70 69 70 70 71 73 74 74 79 78 74 69 70 71 72 72 68 60 61 60 62 60 60 54 47 45 44 45 49
73 73 76 77 80 85 85 86 86 81 81 79 76 75 75 74 73 73 73 73 75 75 76 76 74 73 70 70 68 64 62 62 63 57 57 54 51 41 37 37 33 33 33
78 78 80 80 83 86 89 91 91 87 89 90 86 82 79 75 70 71 71 74 77 79 75 73 75 77 72 65 60 59 58 59 55 51 49 45 39 32 29 27 30 31 40
80 83 84 83 86 87 86 87 84 87 93 92 93 88 84 85 80 77 77 80 84 83 79 77 75 74 72 65 63 62 64 60 51 48 45 39 36 31 28 30 23 28 34
87 86 85 85 85 84 87 87 89 91 93 95 96 92 88 81 82 78 76 77 81 82 80 82 76 74 69 60 55 54 55 46 48 44 41 39 34 30 30 26 26 25 31
84 85 87 87 87 88 91 90 93 95 97 96 94 94 90 86 82 79 75 73 73 80 82 79 77 74 66 54 50 44 34 33 36 37 36 33 29 28 26 24 25 26 31
84 85 84 85 86 86 92 96 97 93 98 101 99 98 94 86 81 78 75 71 69 74 73 75 71 65 57 48 39 32 28 31 30 30 31 27 20 20 14 18 20 21 22
85 86 86 87 87 84 82 83 91 90 92 93 95 96 94 83 78 70 70 70 69 68 70 67 61 53 52 49 40 32 32 30 25 24 22 19 16 15 15 14 13 14 15
87 88 89 87 87 88 85 83 86 78 80 90 90 88 90 91 78 69 69 66 62 60 59 60 56 55 53 48 44 41 35 28 26 19 16 14 13 10 9 9 6 11 10
84 83 84 85 86 89 92 94 86 90 92 92 92 87 87 84 79 75 69 60 55 51 57 62 62 59 57 53 51 47 40 33 27 21 13 10 7 6 5 5 7 4 4
87 89 88 88 87 88 89 93 102 98 93 92 91 88 84 83 75 71 68 56 49 46 58 55 54 55 55 54 55 52 49 37 29 23 19 11 6 4 5 4 3 2 2
87 88 88 88 88 91 92 93 94 96 98 91 78 80 80 79 71 59 53 53 55 51 51 48 47 45 47 50 48 50 46 38 35 28 23 16 11 9 4 2 5 5 6
87 88 89 89 88 91 92 92 90 92 94 94 89 79 73 73 66 53 46 51 54 54 49 46 42 39 38 39 45 44 46 45 40 32 25 21 15 11 5 5 8 9 11
87 89 88 89 89 89 89 89 88 89 87 83 80 71 60 59 59 49 40 42 44 43 39 36 36 36 36 32 27 33 38 42 42 33 28 23 19 13 9 7 3 4 6
88 88 86 85 86 88 87 82 78 75 73 74 72 68 62 56 57 51 40 34 36 40 35 28 23 26 30 29 23 21 25 33 38 31 30 25 20 15 11 8 14 16 12
79 83 79 86 89 83 76 74 74 70 66 60 52 53 60 56 54 49 44 43 40 39 35 30 26 18 12 16 19 18 20 25 35 32 23 19 19 16 13 12 11 14 14
63 79 82 87 86 68 67 68 62 60 58 39 39 48 47 48 40 40 40 37 35 35 33 28 24 18 10 8 13 19 28 27 29 25 23 22 20 16 15 14 12 15 15
58 75 78 85 79 69 63 60 60 64 60 55 54 50 42 36 32 28 26 26 24 23 23 21 15 11 7 5 9 21 20 24 26 24 26 25 22 19 17 16 13 18 18
60 74 79 81 75 70 60 56 64 63 44 46 46 42 35 29 23 19 17 14 11 8 6 10 11 7 8 12 11 14 23 27 26 26 26 26 24 22 17 17 18 19 24
61 75 77 78 73 67 59 46 58 55 53 45 38 34 31 25 18 14 11 7 8 3 1 2 7 9 15 12 20 24 33 33 29 29 26 28 25 23 22 23 25 27 33
Wind_Direction
308 300 299 297 295 284 277 274 268 269 271 272 274 294 271 277 279 276 278 277 265 275 278 283 285 286 287 289 291 293 291 292 294 303 307 307 301 297 291 288 280 293 288
319 317 311 307 308 303 295 290 289 285 287 287 293 277 281 287 284 283 282 282 250 283 285 280 286 291 290 293 293 290 291 294 295 299 304 307 299 297 296 285 287 288 295
321 320 315 311 311 307 303 305 302 299 299 298 297 294 291 292 291 291 287 284 281 281 285 288 290 291 294 296 294 292 293 293 295 300 300 309 306 300 299 298 292 293 296
314 313 313 312 310 310 307 305 306 307 305 307 307 306 304 300 297 296 295 291 289 287 290 293 295 295 296 297 295 294 294 295 297 299 302 304 304 304 298 293 290 296 301
308 307 304 304 305 305 305 305 304 305 304 304 303 304 306 307 305 302 298 296 294 292 294 295 295 295 296 295 295 296 295 294 298 297 301 303 302 299 290 293 287 288 303
300 299 303 305 303 302 301 301 300 300 300 301 301 301 302 305 307 307 304 298 295 296 296 296 297 297 297 296 294 293 292 293 294 298 298 302 300 298 296 291 290 291 286
298 297 296 295 297 296 298 297 296 296 297 297 298 299 300 302 303 304 304 303 300 299 298 297 298 298 298 298 297 297 295 294 296 294 296 298 302 300 296 291 289 293 300
305 303 299 297 294 293 292 292 292 294 293 293 294 296 299 299 299 301 302 302 302 301 300 301 301 300 300 300 299 299 299 299 296 298 297 299 302 301 299 294 292 301 311
304 303 302 301 298 294 292 292 292 296 293 291 291 294 294 297 295 297 300 300 301 300 302 303 301 299 300 301 300 299 301 303 309 306 304 305 305 303 299 301 294 292 303
305 303 302 301 298 296 296 297 297 295 292 292 290 292 293 291 291 294 296 297 297 299 301 300 299 299 299 298 297 296 296 298 302 306 308 309 312 313 306 301 291 296 306
303 302 302 299 296 297 296 296 294 293 292 290 290 290 290 291 292 292 294 296 296 297 298 297 298 296 298 299 299 298 298 294 296 301 302 303 307 308 312 313 314 309 309
310 307 304 301 299 297 295 295 294 292 290 290 291 291 289 289 289 290 292 294 296 295 295 295 296 295 296 298 299 300 300 302 299 298 300 296 299 307 312 318 327 332 330
310 309 309 307 304 301 297 294 294 294 290 287 287 287 289 291 290 288 288 290 294 295 295 294 293 293 294 295 295 294 295 294 295 295 297 298 301 306 323 340 349 358 6
311 310 309 307 306 306 305 302 296 295 294 292 289 287 287 291 290 289 288 289 291 294 294 294 292 291 290 290 287 284 289 286 285 288 296 303 301 312 317 324 335 358 356
312 311 309 307 306 304 303 302 298 298 295 292 290 289 287 286 290 290 286 285 288 292 294 292 290 287 286 282 279 279 278 276 275 281 283 289 298 314 318 326 346 344 356
315 314 313 311 307 303 302 300 300 297 294 292 289 288 286 285 287 289 287 282 284 287 291 290 287 283 280 277 272 272 266 262 262 262 261 265 277 287 278 333 348 14 23
316 315 314 311 308 305 305 304 301 298 297 294 291 289 286 284 283 285 281 276 277 283 289 288 289 286 281 275 269 266 263 256 248 245 244 236 224 216 170 269 318 35 73
317 316 314 309 306 305 304 303 301 299 297 297 298 293 288 284 279 278 275 273 274 276 283 287 290 291 287 278 270 263 259 250 243 240 236 223 207 218 201 115 121 124 102
320 317 313 312 310 308 310 307 306 302 299 296 296 295 293 282 276 269 266 266 268 274 278 283 287 290 291 286 275 264 254 246 241 237 226 218 206 192 192 138 120 103 94
318 319 318 316 315 316 315 310 307 304 302 303 300 295 293 286 275 268 258 260 264 267 272 279 286 290 290 287 280 265 254 243 240 230 223 211 202 192 180 141 142 96 65
324 321 322 323 323 320 315 315 316 316 314 309 303 296 286 283 275 267 260 251 256 264 269 276 286 292 288 281 274 253 249 237 236 226 215 211 200 185 178 152 113 99 86
342 332 335 325 323 326 325 323 322 326 326 322 317 305 287 281 274 267 263 260 260 262 266 271 277 283 269 268 263 238 235 222 221 218 207 197 199 187 167 141 119 103 95
356 341 336 325 326 343 335 332 339 340 339 350 341 315 298 283 281 270 266 266 264 264 265 264 266 272 263 258 248 234 230 212 209 196 182 190 179 166 150 142 130 111 97
3 350 344 329 344 345 346 349 347 337 339 336 320 308 304 301 292 284 278 271 270 270 263 256 253 240 215 177 239 238 226 200 192 176 144 156 172 151 136 124 118 105 98
6 354 346 341 350 344 357 2 329 327 14 358 330 328 331 319 308 303 296 286 281 266 246 250 249 206 188 138 199 177 143 156 169 146 137 135 139 136 140 122 115 105 97
9 355 347 344 351 349 3 23 332 332 5 26 34 351 355 347 326 321 312 307 278 45 131 246 116 126 122 149 142 145 139 139 141 133 133 130 128 125 120 116 108 98 97